Location: Newark
(42.9575°N, 2.5653°E)
Time: 22:42:11
(UTC+00:00)

ISS - Visible Passes

Search period start: 22 January 2020 00:00
Search period end: 01 February 2020 00:00
Orbit: 415 x 421 km, 51.6° (Epoch: 23 January)

Date Brightness Start Highest point End Pass type
(mag) Time Alt. Az. Time Alt. Az. Time Alt. Az.
22 Jan -2.4 17:22:33 10° SSW 17:25:24 26° SE 17:28:16 10° ENE visible
22 Jan -2.4 18:58:47 10° WSW 19:01:16 37° WNW 19:01:16 37° WNW visible
23 Jan -3.6 18:10:37 10° WSW 18:13:58 70° NNW 18:15:23 32° NE visible
24 Jan -3.7 17:22:36 10° SW 17:25:57 72° SE 17:29:19 10° ENE visible
24 Jan -1.8 19:00:06 10° WNW 19:02:22 24° NW 19:02:22 24° NW visible
25 Jan -2.5 18:11:42 10° W 18:14:48 33° NNW 18:16:22 22° NNE visible
26 Jan -3.0 17:23:24 10° WSW 17:26:40 47° NNW 17:29:56 10° NE visible
26 Jan -1.4 19:01:30 10° NW 19:03:16 18° NNW 19:03:16 18° NNW visible
27 Jan -1.9 18:13:03 10° WNW 18:15:45 22° NNW 18:17:11 17° NNE visible
28 Jan -2.2 17:24:36 10° WNW 17:27:31 26° NNW 17:30:26 10° NE visible
28 Jan -1.3 19:02:38 10° NW 19:04:01 16° NNW 19:04:01 16° NNW visible
29 Jan -1.8 18:14:20 10° NW 18:16:46 18° N 18:17:54 16° NNE visible
30 Jan -1.8 17:25:55 10° WNW 17:28:28 20° N 17:31:01 10° NE visible
30 Jan -1.4 19:03:22 10° NW 19:04:43 17° NNW 19:04:43 17° NNW visible
31 Jan -2.0 18:15:14 10° NW 18:17:46 19° N 18:18:38 18° NNE visible
